Time,TemperatureF,DewpointF,PressureIn,WindDirection,WindDirectionDegrees,WindSpeedMPH,WindSpeedGustMPH,Humidity,HourlyPrecipIn,Conditions,Clouds,dailyrainin,SoftwareType,DateUTC
2013-01-15 00:08:00,30.6,23.6,29.95,NW,325,4.0,14.0,75,0.00,,,0.00,Wunderground v.1.15,2013-01-15 05:08:00,
2013-01-15 00:17:00,30.5,23.8,29.96,NNW,332,3.0,3.0,76,0.00,,,0.00,Wunderground v.1.15,2013-01-15 05:17:00,
2013-01-15 00:28:00,30.4,23.7,29.96,NNW,333,2.0,5.0,76,0.00,,,0.00,Wunderground v.1.15,2013-01-15 05:28:00,
2013-01-15 00:37:00,30.4,23.7,29.96,NNW,330,4.0,5.0,76,0.00,,,0.00,Wunderground v.1.15,2013-01-15 05:37:00,
2013-01-15 00:47:00,30.3,23.6,29.94,North,355,4.0,4.0,76,0.00,,,0.00,Wunderground v.1.15,2013-01-15 05:47:00,
2013-01-15 00:58:00,30.1,23.8,29.92,NNE,26,4.0,4.0,77,0.00,,,0.00,Wunderground v.1.15,2013-01-15 05:58:00,
2013-01-15 01:07:00,29.9,23.9,29.94,NE,41,4.0,4.0,78,0.00,,,0.00,Wunderground v.1.15,2013-01-15 06:07:00,
2013-01-15 01:17:00,29.9,23.9,29.93,NW,324,4.0,5.0,78,0.00,,,0.00,Wunderground v.1.15,2013-01-15 06:17:00,
2013-01-15 01:28:00,30.0,24.0,29.95,NW,306,4.0,4.0,78,0.00,,,0.00,Wunderground v.1.15,2013-01-15 06:28:00,
2013-01-15 01:37:00,30.0,24.0,29.95,North,351,3.0,4.0,78,0.00,,,0.00,Wunderground v.1.15,2013-01-15 06:37:00,
2013-01-15 01:48:00,30.0,24.0,29.95,NW,313,4.0,4.0,78,0.00,,,0.00,Wunderground v.1.15,2013-01-15 06:48:00,
2013-01-15 01:58:00,29.9,23.9,29.94,North,5,4.0,4.0,78,0.00,,,0.00,Wunderground v.1.15,2013-01-15 06:58:00,
2013-01-15 02:07:00,29.8,24.1,29.94,NNE,22,3.0,9.0,79,0.00,,,0.00,Wunderground v.1.15,2013-01-15 07:07:00,
2013-01-15 02:18:00,29.7,23.7,29.94,NW,319,4.0,4.0,78,0.00,,,0.00,Wunderground v.1.15,2013-01-15 07:18:00,
2013-01-15 02:27:00,29.6,22.6,29.94,North,350,3.0,6.0,75,0.00,,,0.00,Wunderground v.1.15,2013-01-15 07:27:00,
2013-01-15 02:37:00,29.5,22.2,29.94,NW,310,5.0,6.0,74,0.00,,,0.00,Wunderground v.1.15,2013-01-15 07:37:00,
2013-01-15 02:48:00,29.4,22.1,29.94,NE,40,3.0,5.0,74,0.00,,,0.00,Wunderground v.1.15,2013-01-15 07:48:00,
2013-01-15 02:58:00,29.3,22.4,29.94,North,351,2.0,4.0,75,0.00,,,0.00,Wunderground v.1.15,2013-01-15 07:58:00,
2013-01-15 03:07:00,29.3,22.0,29.94,NW,322,4.0,11.0,74,0.00,,,0.00,Wunderground v.1.15,2013-01-15 08:07:00,
2013-01-15 03:18:00,29.2,21.9,29.93,NNW,329,4.0,4.0,74,0.00,,,0.00,Wunderground v.1.15,2013-01-15 08:18:00,
2013-01-15 03:27:00,29.1,21.8,29.92,NNW,331,5.0,5.0,74,0.00,,,0.00,Wunderground v.1.15,2013-01-15 08:27:00,
2013-01-15 03:38:00,29.0,22.1,29.92,NW,324,5.0,6.0,75,0.00,,,0.00,Wunderground v.1.15,2013-01-15 08:38:00,
2013-01-15 03:47:00,28.9,21.7,29.92,NNW,339,6.0,6.0,74,0.00,,,0.00,Wunderground v.1.15,2013-01-15 08:47:00,
2013-01-15 03:58:00,28.8,21.6,29.93,North,355,5.0,5.0,74,0.00,,,0.00,Wunderground v.1.15,2013-01-15 08:58:00,
2013-01-15 04:08:00,28.7,21.5,29.93,NE,42,5.0,11.0,74,0.00,,,0.00,Wunderground v.1.15,2013-01-15 09:08:00,
2013-01-15 04:18:00,28.7,21.8,29.93,North,355,4.0,4.0,75,0.00,,,0.00,Wunderground v.1.15,2013-01-15 09:18:00,
2013-01-15 04:27:00,28.6,21.7,29.94,WNW,302,3.0,3.0,75,0.00,,,0.00,Wunderground v.1.15,2013-01-15 09:27:00,
2013-01-15 04:38:00,28.6,21.4,29.94,NNW,329,4.0,4.0,74,0.00,,,0.00,Wunderground v.1.15,2013-01-15 09:38:00,
2013-01-15 04:48:00,28.5,21.3,29.93,North,360,5.0,5.0,74,0.00,,,0.00,Wunderground v.1.15,2013-01-15 09:48:00,
2013-01-15 04:57:00,28.4,21.2,29.94,NW,320,3.0,4.0,74,0.00,,,0.00,Wunderground v.1.15,2013-01-15 09:57:00,
2013-01-15 05:08:00,28.3,20.7,29.93,North,351,3.0,14.0,73,0.00,,,0.00,Wunderground v.1.15,2013-01-15 10:08:00,
2013-01-15 05:17:00,28.3,20.7,29.93,NW,306,3.0,4.0,73,0.00,,,0.00,Wunderground v.1.15,2013-01-15 10:17:00,
2013-01-15 05:28:00,28.1,20.9,29.94,NNE,13,3.0,3.0,74,0.00,,,0.00,Wunderground v.1.15,2013-01-15 10:28:00,
2013-01-15 05:37:00,28.0,20.8,29.94,North,11,3.0,3.0,74,0.00,,,0.00,Wunderground v.1.15,2013-01-15 10:37:00,
2013-01-15 05:48:00,28.0,20.8,29.94,North,360,2.0,3.0,74,0.00,,,0.00,Wunderground v.1.15,2013-01-15 10:48:00,
2013-01-15 05:58:00,27.9,20.4,29.94,NNW,346,2.0,2.0,73,0.00,,,0.00,Wunderground v.1.15,2013-01-15 10:58:00,
2013-01-15 06:07:00,27.8,19.9,29.95,North,355,3.0,11.0,72,0.00,,,0.00,Wunderground v.1.15,2013-01-15 11:07:00,
2013-01-15 06:18:00,27.7,19.8,29.95,NW,324,4.0,4.0,72,0.00,,,0.00,Wunderground v.1.15,2013-01-15 11:18:00,
2013-01-15 06:28:00,27.7,20.2,29.95,North,355,3.0,4.0,73,0.00,,,0.00,Wunderground v.1.15,2013-01-15 11:28:00,
2013-01-15 06:37:00,27.6,19.8,29.96,NNW,333,3.0,3.0,72,0.00,,,0.00,Wunderground v.1.15,2013-01-15 11:37:00,
2013-01-15 06:48:00,27.6,20.1,29.96,NNW,336,1.0,3.0,73,0.00,,,0.00,Wunderground v.1.15,2013-01-15 11:48:00,
2013-01-15 06:57:00,27.6,20.1,29.97,North,355,2.0,2.0,73,0.00,,,0.00,Wunderground v.1.15,2013-01-15 11:57:00,
2013-01-15 07:08:00,27.5,20.0,29.97,North,355,1.0,7.0,73,0.00,,,0.00,Wunderground v.1.15,2013-01-15 12:08:00,
2013-01-15 07:18:00,27.5,20.0,29.97,North,355,1.0,2.0,73,0.00,,,0.00,Wunderground v.1.15,2013-01-15 12:18:00,
2013-01-15 07:27:00,27.4,19.9,29.98,North,355,2.0,2.0,73,0.00,,,0.00,Wunderground v.1.15,2013-01-15 12:27:00,
2013-01-15 07:38:00,27.4,19.9,29.98,North,355,1.0,1.0,73,0.00,,,0.00,Wunderground v.1.15,2013-01-15 12:38:00,
2013-01-15 07:47:00,27.4,19.9,29.99,North,355,2.0,6.0,73,0.00,,,0.00,Wunderground v.1.15,2013-01-15 12:47:00,
2013-01-15 07:58:00,27.4,19.9,29.99,North,355,3.0,3.0,73,0.00,,,0.00,Wunderground v.1.15,2013-01-15 12:58:00,
2013-01-15 08:07:00,27.5,20.0,30.00,North,355,1.0,1.0,73,0.00,,,0.00,Wunderground v.1.15,2013-01-15 13:07:00,
2013-01-15 08:18:00,27.5,20.0,30.00,North,355,1.0,1.0,73,0.00,,,0.00,Wunderground v.1.15,2013-01-15 13:18:00,
2013-01-15 08:27:00,27.6,20.1,30.00,NNW,332,2.0,7.0,73,0.00,,,0.00,Wunderground v.1.15,2013-01-15 13:27:00,
2013-01-15 08:38:00,27.6,19.8,30.00,NW,326,4.0,5.0,72,0.00,,,0.00,Wunderground v.1.15,2013-01-15 13:38:00,
2013-01-15 08:47:00,27.6,19.8,30.00,NNW,338,3.0,3.0,72,0.00,,,0.00,Wunderground v.1.15,2013-01-15 13:47:00,
2013-01-15 08:58:00,27.8,20.3,30.01,NNW,344,2.0,2.0,73,0.00,,,0.00,Wunderground v.1.15,2013-01-15 13:58:00,
2013-01-15 09:07:00,27.8,19.6,30.01,North,350,2.0,6.0,71,0.00,,,0.00,Wunderground v.1.15,2013-01-15 14:07:00,
2013-01-15 09:18:00,27.8,19.9,30.01,North,355,3.0,4.0,72,0.00,,,0.00,Wunderground v.1.15,2013-01-15 14:18:00,
2013-01-15 09:27:00,27.9,20.0,30.01,NW,323,2.0,2.0,72,0.00,,,0.00,Wunderground v.1.15,2013-01-15 14:27:00,
2013-01-15 09:37:00,27.9,20.0,30.01,NNE,12,3.0,3.0,72,0.00,,,0.00,Wunderground v.1.15,2013-01-15 14:37:00,
2013-01-15 09:48:00,28.0,19.8,30.01,North,355,3.0,3.0,71,0.00,,,0.00,Wunderground v.1.15,2013-01-15 14:48:00,
2013-01-15 09:57:00,28.1,19.6,30.01,NW,325,3.0,3.0,70,0.00,,,0.00,Wunderground v.1.15,2013-01-15 14:57:00,
2013-01-15 10:08:00,28.1,19.9,30.01,NW,324,4.0,4.0,71,0.00,,,0.00,Wunderground v.1.15,2013-01-15 15:08:00,
2013-01-15 10:17:00,28.3,19.8,30.01,NNW,338,2.0,2.0,70,0.00,,,0.00,Wunderground v.1.15,2013-01-15 15:17:00,
2013-01-15 10:28:00,28.3,19.8,30.01,NW,306,3.0,3.0,70,0.00,,,0.00,Wunderground v.1.15,2013-01-15 15:28:00,
2013-01-15 10:37:00,28.2,19.7,30.01,NW,311,3.0,3.0,70,0.00,,,0.00,Wunderground v.1.15,2013-01-15 15:37:00,
2013-01-15 10:48:00,28.3,19.8,30.00,NW,323,3.0,3.0,70,0.00,,,0.00,Wunderground v.1.15,2013-01-15 15:48:00,
2013-01-15 10:58:00,28.3,19.8,30.00,WNW,299,4.0,4.0,70,0.00,,,0.00,Wunderground v.1.15,2013-01-15 15:58:00,
2013-01-15 11:07:00,28.5,20.0,30.00,NW,321,3.0,3.0,70,0.00,,,0.00,Wunderground v.1.15,2013-01-15 16:07:00,
2013-01-15 11:18:00,28.8,20.2,29.99,NW,321,1.0,2.0,70,0.00,,,0.00,Wunderground v.1.15,2013-01-15 16:18:00,
2013-01-15 11:27:00,28.8,19.9,29.99,WNW,290,3.0,3.0,69,0.00,,,0.00,Wunderground v.1.15,2013-01-15 16:27:00,
2013-01-15 11:37:00,29.1,20.5,29.98,WNW,289,2.0,4.0,70,0.00,,,0.00,Wunderground v.1.15,2013-01-15 16:37:00,
2013-01-15 11:47:00,29.5,20.6,29.98,NW,318,2.0,4.0,69,0.00,,,0.00,Wunderground v.1.15,2013-01-15 16:47:00,
2013-01-15 11:57:00,29.3,20.0,29.97,WNW,303,4.0,4.0,68,0.00,,,0.00,Wunderground v.1.15,2013-01-15 16:57:00,
2013-01-15 12:07:00,29.3,19.3,29.97,NNW,342,3.0,3.0,66,0.00,,,0.00,Wunderground v.1.15,2013-01-15 17:07:00,
2013-01-15 12:18:00,29.2,19.6,29.96,NW,314,4.0,4.0,67,0.00,,,0.00,Wunderground v.1.15,2013-01-15 17:18:00,
2013-01-15 12:27:00,29.2,19.6,29.96,WNW,296,4.0,4.0,67,0.00,,,0.00,Wunderground v.1.15,2013-01-15 17:27:00,
2013-01-15 12:38:00,29.2,19.9,29.97,WNW,288,3.0,3.0,68,0.00,,,0.00,Wunderground v.1.15,2013-01-15 17:38:00,
2013-01-15 12:48:00,29.0,19.8,29.97,North,360,3.0,3.0,68,0.00,,,0.00,Wunderground v.1.15,2013-01-15 17:48:00,
2013-01-15 12:57:00,29.2,20.3,29.97,WNW,284,3.0,11.0,69,0.00,,,0.00,Wunderground v.1.15,2013-01-15 17:57:00,
2013-01-15 13:07:00,28.9,19.0,29.96,NW,304,5.0,5.0,66,0.00,,,0.00,Wunderground v.1.15,2013-01-15 18:07:00,
2013-01-15 13:17:00,29.3,19.0,29.96,West,273,4.0,4.0,65,0.00,,,0.00,Wunderground v.1.15,2013-01-15 18:17:00,
2013-01-15 13:27:00,30.1,19.7,29.96,West,273,3.0,3.0,65,0.00,,,0.00,Wunderground v.1.15,2013-01-15 18:27:00,
2013-01-15 13:38:00,29.6,19.3,29.96,NW,325,4.0,5.0,65,0.00,,,0.00,Wunderground v.1.15,2013-01-15 18:38:00,
2013-01-15 13:47:00,29.6,18.9,29.97,WNW,284,3.0,4.0,64,0.00,,,0.00,Wunderground v.1.15,2013-01-15 18:47:00,
2013-01-15 13:58:00,29.9,19.2,29.97,WNW,289,3.0,4.0,64,0.00,,,0.00,Wunderground v.1.15,2013-01-15 18:58:00,
2013-01-15 14:07:00,29.9,18.5,29.97,NW,323,4.0,11.0,62,0.00,,,0.00,Wunderground v.1.15,2013-01-15 19:07:00,
2013-01-15 14:18:00,29.4,18.0,29.97,WNW,288,5.0,5.0,62,0.00,,,0.00,Wunderground v.1.15,2013-01-15 19:18:00,
2013-01-15 14:27:00,29.4,18.3,29.97,West,277,4.0,4.0,63,0.00,,,0.00,Wunderground v.1.15,2013-01-15 19:27:00,
2013-01-15 14:38:00,29.4,18.0,29.97,NW,324,4.0,4.0,62,0.00,,,0.00,Wunderground v.1.15,2013-01-15 19:38:00,
2013-01-15 14:47:00,29.3,17.9,29.97,NW,323,5.0,5.0,62,0.00,,,0.00,Wunderground v.1.15,2013-01-15 19:47:00,
2013-01-15 14:58:00,29.1,17.3,29.97,NNW,339,5.0,8.0,61,0.00,,,0.00,Wunderground v.1.15,2013-01-15 19:58:00,
2013-01-15 15:07:00,28.9,17.5,29.96,WNW,288,4.0,4.0,62,0.00,,,0.00,Wunderground v.1.15,2013-01-15 20:07:00,
2013-01-15 15:17:00,29.1,17.3,29.96,NW,312,2.0,2.0,61,0.00,,,0.00,Wunderground v.1.15,2013-01-15 20:17:00,
2013-01-15 15:27:00,28.9,17.9,29.97,WNW,298,3.0,3.0,63,0.00,,,0.00,Wunderground v.1.15,2013-01-15 20:27:00,
2013-01-15 15:37:00,28.7,17.7,29.97,NW,321,3.0,3.0,63,0.00,,,0.00,Wunderground v.1.15,2013-01-15 20:37:00,
2013-01-15 15:47:00,28.5,17.5,29.97,NW,323,4.0,4.0,63,0.00,,,0.00,Wunderground v.1.15,2013-01-15 20:47:00,
2013-01-15 15:58:00,28.5,17.1,29.98,WNW,298,2.0,2.0,62,0.00,,,0.00,Wunderground v.1.15,2013-01-15 20:58:00,
2013-01-15 16:07:00,28.1,18.5,29.98,NNE,22,3.0,12.0,67,0.00,,,0.00,Wunderground v.1.15,2013-01-15 21:07:00,
2013-01-15 16:17:00,27.7,19.2,29.98,NNE,15,3.0,6.0,70,0.00,,,0.00,Wunderground v.1.15,2013-01-15 21:17:00,
2013-01-15 16:28:00,27.3,18.5,29.98,NNE,22,4.0,4.0,69,0.00,,,0.00,Wunderground v.1.15,2013-01-15 21:28:00,
2013-01-15 16:37:00,27.0,18.2,29.98,NNW,329,3.0,3.0,69,0.00,,,0.00,Wunderground v.1.15,2013-01-15 21:37:00,
2013-01-15 16:47:00,26.6,18.5,29.97,NW,325,2.0,2.0,71,0.00,,,0.00,Wunderground v.1.15,2013-01-15 21:47:00,
2013-01-15 16:58:00,26.1,18.0,29.96,NNW,327,1.0,1.0,71,0.00,,,0.00,Wunderground v.1.15,2013-01-15 21:58:00,
2013-01-15 17:07:00,25.8,18.0,29.97,NNW,327,1.0,9.0,72,0.00,,,0.00,Wunderground v.1.15,2013-01-15 22:07:00,
2013-01-15 17:17:00,25.6,17.8,29.97,NNW,327,1.0,1.0,72,0.00,,,0.00,Wunderground v.1.15,2013-01-15 22:17:00,